owner,sensor,date,latitude,longitude,vertical_datum,sea_water_practical_salinity,qcFlag 
DISL,ioos:station:DISL:CATA:1,2017-10-01T00:00:00Z,30.3085,-88.1395,2.227,7.21,1111122 
DISL,ioos:station:DISL:CATA:1,2017-10-01T00:30:00Z,30.3085,-88.1395,2.232,7.14,1111122 
DISL,ioos:station:DISL:CATA:1,2017-10-01T01:00:00Z,30.3085,-88.1395,2.199,7.13,1111122 
DISL,ioos:station:DISL:CATA:1,2017-10-01T01:30:00Z,30.3085,-88.1395,2.224,7.09,1111122 
DISL,ioos:station:DISL:CATA:1,2017-10-01T02:00:00Z,30.3085,-88.1395,2.268,7.08,1111122 
DISL,ioos:station:DISL:CATA:1,2017-10-01T02:30:00Z,30.3085,-88.1395,2.278,7.08,1111122 
DISL,ioos:station:DISL:CATA:1,2017-10-01T03:00:00Z,30.3085,-88.1395,2.285,7.08,1111122 
DISL,ioos:station:DISL:CATA:1,2017-10-01T03:30:00Z,30.3085,-88.1395,2.283,7.15,1111122 
DISL,ioos:station:DISL:CATA:1,2017-10-01T04:00:00Z,30.3085,-88.1395,2.317,7.06,1111122 
DISL,ioos:station:DISL:CATA:1,2017-10-01T04:30:00Z,30.3085,-88.1395,2.365,7.12,1111122 
DISL,ioos:station:DISL:CATA:1,2017-10-01T05:00:00Z,30.3085,-88.1395,2.367,7.16,1111122 
DISL,ioos:station:DISL:CATA:1,2017-10-01T05:30:00Z,30.3085,-88.1395,2.343,6.96,1111122 
DISL,ioos:station:DISL:CATA:1,2017-10-01T06:00:00Z,30.3085,-88.1395,2.363,6.97,1111122 
DISL,ioos:station:DISL:CATA:1,2017-10-01T06:30:00Z,30.3085,-88.1395,2.378,7.01,1111122 
DISL,ioos:station:DISL:CATA:1,2017-10-01T07:00:00Z,30.3085,-88.1395,2.369,7.02,1111122 
DISL,ioos:station:DISL:CATA:1,2017-10-01T07:30:00Z,30.3085,-88.1395,2.399,7.1,1111122 
DISL,ioos:station:DISL:CATA:1,2017-10-01T08:00:00Z,30.3085,-88.1395,2.38,7.2,1111122 
DISL,ioos:station:DISL:CATA:1,2017-10-01T08:30:00Z,30.3085,-88.1395,2.409,7.26,1111122 
DISL,ioos:station:DISL:CATA:1,2017-10-01T09:00:00Z,30.3085,-88.1395,2.434,7.27,1111122 
DISL,ioos:station:DISL:CATA:1,2017-10-01T09:30:00Z,30.3085,-88.1395,2.502,7.19,1111122 
DISL,ioos:station:DISL:CATA:1,2017-10-01T10:00:00Z,30.3085,-88.1395,2.463,7.28,1111122 
DISL,ioos:station:DISL:CATA:1,2017-10-01T10:30:00Z,30.3085,-88.1395,2.5,7.12,1111122 
DISL,ioos:station:DISL:CATA:1,2017-10-01T11:00:00Z,30.3085,-88.1395,2.523,7.11,1111122 
DISL,ioos:station:DISL:CATA:1,2017-10-01T11:30:00Z,30.3085,-88.1395,2.542,7.08,1111122 
DISL,ioos:station:DISL:CATA:1,2017-10-01T12:00:00Z,30.3085,-88.1395,2.55,7.08,1111122 
DISL,ioos:station:DISL:CATA:1,2017-10-01T12:30:00Z,30.3085,-88.1395,2.515,7.02,1111122 
DISL,ioos:station:DISL:CATA:1,2017-10-01T13:00:00Z,30.3085,-88.1395,2.489,6.98,1111122 
DISL,ioos:station:DISL:CATA:1,2017-10-01T13:30:00Z,30.3085,-88.1395,2.501,7.05,1111122 
DISL,ioos:station:DISL:CATA:1,2017-10-01T14:00:00Z,30.3085,-88.1395,2.485,6.97,1111122 
DISL,ioos:station:DISL:CATA:1,2017-10-01T14:30:00Z,30.3085,-88.1395,2.492,6.98,1111122 
DISL,ioos:station:DISL:CATA:1,2017-10-01T15:00:00Z,30.3085,-88.1395,2.485,6.92,1111122 
DISL,ioos:station:DISL:CATA:1,2017-10-01T15:30:00Z,30.3085,-88.1395,2.467,6.84,1111122 
DISL,ioos:station:DISL:CATA:1,2017-10-01T16:00:00Z,30.3085,-88.1395,2.467,6.85,1111122 
DISL,ioos:station:DISL:CATA:1,2017-10-01T16:30:00Z,30.3085,-88.1395,2.449,7.0,1111122 
DISL,ioos:station:DISL:CATA:1,2017-10-01T17:00:00Z,30.3085,-88.1395,2.448,7.15,1111122 
DISL,ioos:station:DISL:CATA:1,2017-10-01T17:30:00Z,30.3085,-88.1395,2.433,7.41,1111122 
DISL,ioos:station:DISL:CATA:1,2017-10-01T18:00:00Z,30.3085,-88.1395,2.426,7.56,1111122 
DISL,ioos:station:DISL:CATA:1,2017-10-01T18:30:00Z,30.3085,-88.1395,2.423,7.51,1111122 
DISL,ioos:station:DISL:CATA:1,2017-10-01T19:00:00Z,30.3085,-88.1395,2.397,7.7,1111122 
DISL,ioos:station:DISL:CATA:1,2017-10-01T19:30:00Z,30.3085,-88.1395,2.387,7.67,1111122 
DISL,ioos:station:DISL:CATA:1,2017-10-01T20:00:00Z,30.3085,-88.1395,2.389,7.8,1111122 
DISL,ioos:station:DISL:CATA:1,2017-10-01T20:30:00Z,30.3085,-88.1395,2.373,7.81,1111122 
DISL,ioos:station:DISL:CATA:1,2017-10-01T21:00:00Z,30.3085,-88.1395,2.366,7.79,1111122 
DISL,ioos:station:DISL:CATA:1,2017-10-01T21:30:00Z,30.3085,-88.1395,2.317,7.71,1111122 
DISL,ioos:station:DISL:CATA:1,2017-10-01T22:00:00Z,30.3085,-88.1395,2.3,7.73,1111122 
DISL,ioos:station:DISL:CATA:1,2017-10-01T22:30:00Z,30.3085,-88.1395,2.277,7.73,1111122 
DISL,ioos:station:DISL:CATA:1,2017-10-01T23:00:00Z,30.3085,-88.1395,2.271,7.69,1111122 
DISL,ioos:station:DISL:CATA:1,2017-10-01T23:30:00Z,30.3085,-88.1395,2.265,7.72,1111122 
DISL,ioos:station:DISL:CATA:1,2017-10-02T00:00:00Z,30.3085,-88.1395,2.27,7.82,1111122 
DISL,ioos:station:DISL:CATA:1,2017-10-02T00:30:00Z,30.3085,-88.1395,2.281,7.86,1111122 
DISL,ioos:station:DISL:CATA:1,2017-10-02T01:00:00Z,30.3085,-88.1395,2.271,8.11,1111122 
DISL,ioos:station:DISL:CATA:1,2017-10-02T01:30:00Z,30.3085,-88.1395,2.253,8.16,1111122 
DISL,ioos:station:DISL:CATA:1,2017-10-02T02:00:00Z,30.3085,-88.1395,2.254,8.17,1111122 
DISL,ioos:station:DISL:CATA:1,2017-10-02T02:30:00Z,30.3085,-88.1395,2.276,8.49,1111122 
DISL,ioos:station:DISL:CATA:1,2017-10-02T03:00:00Z,30.3085,-88.1395,2.299,8.64,1111122 
DISL,ioos:station:DISL:CATA:1,2017-10-02T03:30:00Z,30.3085,-88.1395,2.307,9.08,1111122 
DISL,ioos:station:DISL:CATA:1,2017-10-02T04:00:00Z,30.3085,-88.1395,2.322,9.03,1111122 
DISL,ioos:station:DISL:CATA:1,2017-10-02T04:30:00Z,30.3085,-88.1395,2.336,9.27,1111122 
DISL,ioos:station:DISL:CATA:1,2017-10-02T05:00:00Z,30.3085,-88.1395,2.358,9.67,1111122 
DISL,ioos:station:DISL:CATA:1,2017-10-02T05:30:00Z,30.3085,-88.1395,2.389,9.7,1111122 
DISL,ioos:station:DISL:CATA:1,2017-10-02T06:00:00Z,30.3085,-88.1395,2.413,10.28,1111122 
DISL,ioos:station:DISL:CATA:1,2017-10-02T06:30:00Z,30.3085,-88.1395,2.433,9.86,1111122 
DISL,ioos:station:DISL:CATA:1,2017-10-02T07:00:00Z,30.3085,-88.1395,2.447,9.85,1111122 
DISL,ioos:station:DISL:CATA:1,2017-10-02T07:30:00Z,30.3085,-88.1395,2.474,9.76,1111122 
DISL,ioos:station:DISL:CATA:1,2017-10-02T08:00:00Z,30.3085,-88.1395,2.499,9.67,1111122 
DISL,ioos:station:DISL:CATA:1,2017-10-02T08:30:00Z,30.3085,-88.1395,2.524,10.64,1111122 
DISL,ioos:station:DISL:CATA:1,2017-10-02T09:00:00Z,30.3085,-88.1395,2.537,10.47,1111122 
DISL,ioos:station:DISL:CATA:1,2017-10-02T09:30:00Z,30.3085,-88.1395,2.587,10.9,1111122 
DISL,ioos:station:DISL:CATA:1,2017-10-02T10:00:00Z,30.3085,-88.1395,2.62,11.52,1111122 
DISL,ioos:station:DISL:CATA:1,2017-10-02T10:30:00Z,30.3085,-88.1395,2.649,11.83,1111122 
DISL,ioos:station:DISL:CATA:1,2017-10-02T11:00:00Z,30.3085,-88.1395,2.674,11.84,1111122 
DISL,ioos:station:DISL:CATA:1,2017-10-02T11:30:00Z,30.3085,-88.1395,2.684,11.84,1111122 
DISL,ioos:station:DISL:CATA:1,2017-10-02T12:00:00Z,30.3085,-88.1395,2.709,12.07,1111122 
DISL,ioos:station:DISL:CATA:1,2017-10-02T12:30:00Z,30.3085,-88.1395,2.714,12.0,1111122 
DISL,ioos:station:DISL:CATA:1,2017-10-02T13:00:00Z,30.3085,-88.1395,2.712,11.71,1111122 
DISL,ioos:station:DISL:CATA:1,2017-10-02T13:30:00Z,30.3085,-88.1395,2.703,11.37,1111122 
DISL,ioos:station:DISL:CATA:1,2017-10-02T14:00:00Z,30.3085,-88.1395,2.688,10.89,1111122 
DISL,ioos:station:DISL:CATA:1,2017-10-02T14:30:00Z,30.3085,-88.1395,2.675,11.28,1111122 
DISL,ioos:station:DISL:CATA:1,2017-10-02T15:00:00Z,30.3085,-88.1395,2.659,11.1,1111122 
DISL,ioos:station:DISL:CATA:1,2017-10-02T15:30:00Z,30.3085,-88.1395,2.646,11.21,1111122 
DISL,ioos:station:DISL:CATA:1,2017-10-02T16:00:00Z,30.3085,-88.1395,2.617,11.61,1111122 
DISL,ioos:station:DISL:CATA:1,2017-10-02T16:30:00Z,30.3085,-88.1395,2.674,11.81,1111122 
DISL,ioos:station:DISL:CATA:1,2017-10-02T17:00:00Z,30.3085,-88.1395,2.587,11.44,1111122 
DISL,ioos:station:DISL:CATA:1,2017-10-02T17:30:00Z,30.3085,-88.1395,2.559,11.84,1111122 
DISL,ioos:station:DISL:CATA:1,2017-10-02T18:00:00Z,30.3085,-88.1395,2.542,11.76,1111122 
DISL,ioos:station:DISL:CATA:1,2017-10-02T18:30:00Z,30.3085,-88.1395,2.458,11.82,1111122 
DISL,ioos:station:DISL:CATA:1,2017-10-02T19:00:00Z,30.3085,-88.1395,2.48,11.96,1111122 
DISL,ioos:station:DISL:CATA:1,2017-10-02T19:30:00Z,30.3085,-88.1395,2.468,11.93,1111122 
DISL,ioos:station:DISL:CATA:1,2017-10-02T20:00:00Z,30.3085,-88.1395,2.435,12.11,1111122 
DISL,ioos:station:DISL:CATA:1,2017-10-02T20:30:00Z,30.3085,-88.1395,2.319,12.1,1111122 
DISL,ioos:station:DISL:CATA:1,2017-10-02T21:00:00Z,30.3085,-88.1395,2.384,12.02,1111122 
DISL,ioos:station:DISL:CATA:1,2017-10-02T21:30:00Z,30.3085,-88.1395,2.383,12.03,1111122 
DISL,ioos:station:DISL:CATA:1,2017-10-02T22:00:00Z,30.3085,-88.1395,2.377,12.24,1111122 
DISL,ioos:station:DISL:CATA:1,2017-10-02T22:30:00Z,30.3085,-88.1395,2.384,12.07,1111122 
DISL,ioos:station:DISL:CATA:1,2017-10-02T23:00:00Z,30.3085,-88.1395,2.387,12.11,1111122 
DISL,ioos:station:DISL:CATA:1,2017-10-02T23:30:00Z,30.3085,-88.1395,2.407,12.22,1111122 
DISL,ioos:station:DISL:CATA:1,2017-10-03T00:00:00Z,30.3085,-88.1395,2.413,12.3,1111122 
DISL,ioos:station:DISL:CATA:1,2017-10-03T00:30:00Z,30.3085,-88.1395,2.412,12.48,1111122 
DISL,ioos:station:DISL:CATA:1,2017-10-03T01:00:00Z,30.3085,-88.1395,2.401,12.26,1111122 
DISL,ioos:station:DISL:CATA:1,2017-10-03T01:30:00Z,30.3085,-88.1395,2.425,12.27,1111122 
DISL,ioos:station:DISL:CATA:1,2017-10-03T02:00:00Z,30.3085,-88.1395,2.438,12.17,1111122 
DISL,ioos:station:DISL:CATA:1,2017-10-03T02:30:00Z,30.3085,-88.1395,2.442,11.94,1111122 
DISL,ioos:station:DISL:CATA:1,2017-10-03T03:00:00Z,30.3085,-88.1395,2.463,12.11,1111122 
DISL,ioos:station:DISL:CATA:1,2017-10-03T03:30:00Z,30.3085,-88.1395,2.47,12.13,1111122 
DISL,ioos:station:DISL:CATA:1,2017-10-03T04:00:00Z,30.3085,-88.1395,2.469,12.21,1111122 
DISL,ioos:station:DISL:CATA:1,2017-10-03T04:30:00Z,30.3085,-88.1395,2.482,12.2,1111122 
DISL,ioos:station:DISL:CATA:1,2017-10-03T05:00:00Z,30.3085,-88.1395,2.492,12.19,1111122 
DISL,ioos:station:DISL:CATA:1,2017-10-03T05:30:00Z,30.3085,-88.1395,2.492,12.55,1111122 
DISL,ioos:station:DISL:CATA:1,2017-10-03T06:00:00Z,30.3085,-88.1395,2.499,12.6,1111122 
DISL,ioos:station:DISL:CATA:1,2017-10-03T06:30:00Z,30.3085,-88.1395,2.494,12.39,1111122 
DISL,ioos:station:DISL:CATA:1,2017-10-03T07:00:00Z,30.3085,-88.1395,2.5,12.36,1111122 
DISL,ioos:station:DISL:CATA:1,2017-10-03T07:30:00Z,30.3085,-88.1395,2.506,12.78,1111122 
DISL,ioos:station:DISL:CATA:1,2017-10-03T08:00:00Z,30.3085,-88.1395,2.509,13.3,1111122 
DISL,ioos:station:DISL:CATA:1,2017-10-03T08:30:00Z,30.3085,-88.1395,2.517,13.67,1111122 
DISL,ioos:station:DISL:CATA:1,2017-10-03T09:00:00Z,30.3085,-88.1395,2.535,13.96,1111122 
DISL,ioos:station:DISL:CATA:1,2017-10-03T09:30:00Z,30.3085,-88.1395,2.535,13.8,1111122 
DISL,ioos:station:DISL:CATA:1,2017-10-03T10:00:00Z,30.3085,-88.1395,2.522,13.69,1111122 
DISL,ioos:station:DISL:CATA:1,2017-10-03T10:30:00Z,30.3085,-88.1395,2.524,13.65,1111122 
DISL,ioos:station:DISL:CATA:1,2017-10-03T11:00:00Z,30.3085,-88.1395,2.615,13.56,1111122 
DISL,ioos:station:DISL:CATA:1,2017-10-03T11:30:00Z,30.3085,-88.1395,2.562,13.45,1111122 
DISL,ioos:station:DISL:CATA:1,2017-10-03T12:00:00Z,30.3085,-88.1395,2.585,13.63,1111122 
DISL,ioos:station:DISL:CATA:1,2017-10-03T12:30:00Z,30.3085,-88.1395,2.613,13.32,1111122 
DISL,ioos:station:DISL:CATA:1,2017-10-03T13:00:00Z,30.3085,-88.1395,2.628,13.33,1111122 
DISL,ioos:station:DISL:CATA:1,2017-10-03T13:30:00Z,30.3085,-88.1395,2.631,13.25,1111122 
DISL,ioos:station:DISL:CATA:1,2017-10-03T14:00:00Z,30.3085,-88.1395,2.642,13.17,1111122 
DISL,ioos:station:DISL:CATA:1,2017-10-03T14:30:00Z,30.3085,-88.1395,2.643,13.24,1111122 
DISL,ioos:station:DISL:CATA:1,2017-10-03T15:00:00Z,30.3085,-88.1395,2.626,13.31,1111122 
DISL,ioos:station:DISL:CATA:1,2017-10-03T15:30:00Z,30.3085,-88.1395,2.61,13.27,1111122 
DISL,ioos:station:DISL:CATA:1,2017-10-03T16:00:00Z,30.3085,-88.1395,2.604,13.19,1111122 
DISL,ioos:station:DISL:CATA:1,2017-10-03T16:30:00Z,30.3085,-88.1395,2.592,13.11,1111122 
DISL,ioos:station:DISL:CATA:1,2017-10-03T17:00:00Z,30.3085,-88.1395,2.579,12.98,1111122 
DISL,ioos:station:DISL:CATA:1,2017-10-03T17:30:00Z,30.3085,-88.1395,2.547,13.01,1111122 
DISL,ioos:station:DISL:CATA:1,2017-10-03T18:00:00Z,30.3085,-88.1395,2.533,12.82,1111122 
DISL,ioos:station:DISL:CATA:1,2017-10-03T18:30:00Z,30.3085,-88.1395,2.509,12.8,1111122 
DISL,ioos:station:DISL:CATA:1,2017-10-03T19:00:00Z,30.3085,-88.1395,2.494,12.67,1111122 
DISL,ioos:station:DISL:CATA:1,2017-10-03T19:30:00Z,30.3085,-88.1395,2.454,12.52,1111122 
DISL,ioos:station:DISL:CATA:1,2017-10-03T20:00:00Z,30.3085,-88.1395,2.431,12.32,1111122 
DISL,ioos:station:DISL:CATA:1,2017-10-03T20:30:00Z,30.3085,-88.1395,2.402,12.14,1111122 
DISL,ioos:station:DISL:CATA:1,2017-10-03T21:00:00Z,30.3085,-88.1395,2.4,12.0,11111222 
DISL,ioos:station:DISL:CATA:1,2017-10-03T21:30:00Z,30.3085,-88.1395,2.392,11.84,1111122 
DISL,ioos:station:DISL:CATA:1,2017-10-03T22:00:00Z,30.3085,-88.1395,2.4,11.9,11111222 
DISL,ioos:station:DISL:CATA:1,2017-10-03T22:30:00Z,30.3085,-88.1395,2.369,11.94,1111122 
DISL,ioos:station:DISL:CATA:1,2017-10-03T23:00:00Z,30.3085,-88.1395,2.4,12.4,11111222 
DISL,ioos:station:DISL:CATA:1,2017-10-03T23:30:00Z,30.3085,-88.1395,2.369,12.66,1111122 
DISL,ioos:station:DISL:CATA:1,2017-10-04T00:00:00Z,30.3085,-88.1395,2.4,13.0,11111222 
DISL,ioos:station:DISL:CATA:1,2017-10-04T00:30:00Z,30.3085,-88.1395,2.391,13.12,1111122 
DISL,ioos:station:DISL:CATA:1,2017-10-04T01:00:00Z,30.3085,-88.1395,2.4,13.5,11111222 
DISL,ioos:station:DISL:CATA:1,2017-10-04T01:30:00Z,30.3085,-88.1395,2.417,13.48,1111122 
DISL,ioos:station:DISL:CATA:1,2017-10-04T02:00:00Z,30.3085,-88.1395,2.4,13.5,11111222 
DISL,ioos:station:DISL:CATA:1,2017-10-04T02:30:00Z,30.3085,-88.1395,2.42,13.26,1111122 
DISL,ioos:station:DISL:CATA:1,2017-10-04T03:00:00Z,30.3085,-88.1395,2.4,13.2,11111222 
DISL,ioos:station:DISL:CATA:1,2017-10-04T03:30:00Z,30.3085,-88.1395,2.407,13.02,1111122 
DISL,ioos:station:DISL:CATA:1,2017-10-04T04:00:00Z,30.3085,-88.1395,2.4,12.9,11111222 
DISL,ioos:station:DISL:CATA:1,2017-10-04T04:30:00Z,30.3085,-88.1395,2.392,12.64,1111122 
DISL,ioos:station:DISL:CATA:1,2017-10-04T05:00:00Z,30.3085,-88.1395,2.4,12.6,11111222 
DISL,ioos:station:DISL:CATA:1,2017-10-04T05:30:00Z,30.3085,-88.1395,2.35,12.65,1111122 
DISL,ioos:station:DISL:CATA:1,2017-10-04T06:30:00Z,30.3085,-88.1395,2.342,12.36,1111122 
DISL,ioos:station:DISL:CATA:1,2017-10-04T07:00:00Z,30.3085,-88.1395,2.3,12.7,11111222 
DISL,ioos:station:DISL:CATA:1,2017-10-04T07:30:00Z,30.3085,-88.1395,2.335,12.67,1111122 
DISL,ioos:station:DISL:CATA:1,2017-10-04T08:00:00Z,30.3085,-88.1395,2.3,12.6,11111222 
DISL,ioos:station:DISL:CATA:1,2017-10-04T08:30:00Z,30.3085,-88.1395,2.332,12.46,1111122 
DISL,ioos:station:DISL:CATA:1,2017-10-04T09:00:00Z,30.3085,-88.1395,2.3,12.2,11111222 
DISL,ioos:station:DISL:CATA:1,2017-10-04T09:30:00Z,30.3085,-88.1395,2.348,11.83,1111122 
DISL,ioos:station:DISL:CATA:1,2017-10-04T10:00:00Z,30.3085,-88.1395,2.4,11.4,11111222 
DISL,ioos:station:DISL:CATA:1,2017-10-04T10:30:00Z,30.3085,-88.1395,2.4,11.6,11111222 
DISL,ioos:station:DISL:CATA:1,2017-10-04T11:00:00Z,30.3085,-88.1395,2.39,11.88,1111122 
DISL,ioos:station:DISL:CATA:1,2017-10-04T11:30:00Z,30.3085,-88.1395,2.4,11.8,11111222 
DISL,ioos:station:DISL:CATA:1,2017-10-04T12:00:00Z,30.3085,-88.1395,2.4,11.7,11111222 
DISL,ioos:station:DISL:CATA:1,2017-10-04T12:30:00Z,30.3085,-88.1395,2.437,11.94,1111122 
DISL,ioos:station:DISL:CATA:1,2017-10-04T13:00:00Z,30.3085,-88.1395,2.5,12.2,11111222 
DISL,ioos:station:DISL:CATA:1,2017-10-04T13:30:00Z,30.3085,-88.1395,2.448,12.09,1111122 
DISL,ioos:station:DISL:CATA:1,2017-10-04T14:00:00Z,30.3085,-88.1395,2.5,12.0,11111222 
DISL,ioos:station:DISL:CATA:1,2017-10-04T14:30:00Z,30.3085,-88.1395,2.475,12.39,1111122 
DISL,ioos:station:DISL:CATA:1,2017-10-04T15:00:00Z,30.3085,-88.1395,2.5,11.9,11111222 
DISL,ioos:station:DISL:CATA:1,2017-10-04T15:30:00Z,30.3085,-88.1395,2.481,12.0,1111122 
DISL,ioos:station:DISL:CATA:1,2017-10-04T16:00:00Z,30.3085,-88.1395,2.5,11.9,11111222 
DISL,ioos:station:DISL:CATA:1,2017-10-04T16:30:00Z,30.3085,-88.1395,2.482,11.44,1111122 
DISL,ioos:station:DISL:CATA:1,2017-10-04T17:00:00Z,30.3085,-88.1395,2.5,11.4,11111222 
DISL,ioos:station:DISL:CATA:1,2017-10-04T17:30:00Z,30.3085,-88.1395,2.512,11.26,1111122 
DISL,ioos:station:DISL:CATA:1,2017-10-04T18:00:00Z,30.3085,-88.1395,2.5,11.3,11111222 
DISL,ioos:station:DISL:CATA:1,2017-10-04T18:30:00Z,30.3085,-88.1395,2.489,11.19,1111122 
DISL,ioos:station:DISL:CATA:1,2017-10-04T19:00:00Z,30.3085,-88.1395,2.5,11.0,11111222 
DISL,ioos:station:DISL:CATA:1,2017-10-04T19:30:00Z,30.3085,-88.1395,2.476,10.96,1111122 
DISL,ioos:station:DISL:CATA:1,2017-10-04T20:00:00Z,30.3085,-88.1395,2.5,10.8,11111222 
DISL,ioos:station:DISL:CATA:1,2017-10-04T20:30:00Z,30.3085,-88.1395,2.437,10.87,1111122 
DISL,ioos:station:DISL:CATA:1,2017-10-04T21:00:00Z,30.3085,-88.1395,2.4,11.0,11111222 
DISL,ioos:station:DISL:CATA:1,2017-10-04T21:30:00Z,30.3085,-88.1395,2.397,10.66,1111122 
DISL,ioos:station:DISL:CATA:1,2017-10-04T22:00:00Z,30.3085,-88.1395,2.4,10.8,11111222 
DISL,ioos:station:DISL:CATA:1,2017-10-04T22:30:00Z,30.3085,-88.1395,2.373,10.77,1111122 
DISL,ioos:station:DISL:CATA:1,2017-10-04T23:00:00Z,30.3085,-88.1395,2.4,10.7,11111222 
DISL,ioos:station:DISL:CATA:1,2017-10-04T23:30:00Z,30.3085,-88.1395,2.394,10.74,1111122 
DISL,ioos:station:DISL:CATA:1,2017-10-05T00:00:00Z,30.3085,-88.1395,2.4,10.7,11111222 
DISL,ioos:station:DISL:CATA:1,2017-10-05T00:30:00Z,30.3085,-88.1395,2.412,10.86,1111122 
DISL,ioos:station:DISL:CATA:1,2017-10-05T01:00:00Z,30.3085,-88.1395,2.4,10.9,11111222 
DISL,ioos:station:DISL:CATA:1,2017-10-05T01:30:00Z,30.3085,-88.1395,2.441,11.15,1111122 
DISL,ioos:station:DISL:CATA:1,2017-10-05T02:00:00Z,30.3085,-88.1395,2.5,11.1,11111222 
DISL,ioos:station:DISL:CATA:1,2017-10-05T02:30:00Z,30.3085,-88.1395,2.462,11.05,1111122 
DISL,ioos:station:DISL:CATA:1,2017-10-05T03:00:00Z,30.3085,-88.1395,2.5,10.9,11111222 
DISL,ioos:station:DISL:CATA:1,2017-10-05T03:30:00Z,30.3085,-88.1395,2.454,10.95,1111122 
DISL,ioos:station:DISL:CATA:1,2017-10-05T04:00:00Z,30.3085,-88.1395,2.4,11.0,11111222 
DISL,ioos:station:DISL:CATA:1,2017-10-05T04:30:00Z,30.3085,-88.1395,2.437,10.63,1111122 
DISL,ioos:station:DISL:CATA:1,2017-10-05T05:00:00Z,30.3085,-88.1395,2.4,10.7,11111222 
DISL,ioos:station:DISL:CATA:1,2017-10-05T05:30:00Z,30.3085,-88.1395,2.436,10.71,1111122 
DISL,ioos:station:DISL:CATA:1,2017-10-05T06:30:00Z,30.3085,-88.1395,2.412,10.87,1111122 
DISL,ioos:station:DISL:CATA:1,2017-10-05T07:00:00Z,30.3085,-88.1395,2.4,10.9,11111222 
DISL,ioos:station:DISL:CATA:1,2017-10-05T07:30:00Z,30.3085,-88.1395,2.399,11.04,1111122 
DISL,ioos:station:DISL:CATA:1,2017-10-05T08:00:00Z,30.3085,-88.1395,2.385,11.1,1111122 
DISL,ioos:station:DISL:CATA:1,2017-10-05T08:30:00Z,30.3085,-88.1395,2.4,11.1,11111222 
DISL,ioos:station:DISL:CATA:1,2017-10-05T09:00:00Z,30.3085,-88.1395,2.4,10.9,11111222 
DISL,ioos:station:DISL:CATA:1,2017-10-05T09:30:00Z,30.3085,-88.1395,2.355,10.55,1111122 
DISL,ioos:station:DISL:CATA:1,2017-10-05T10:00:00Z,30.3085,-88.1395,2.4,10.3,11111222 
DISL,ioos:station:DISL:CATA:1,2017-10-05T10:30:00Z,30.3085,-88.1395,2.372,10.06,1111122 
DISL,ioos:station:DISL:CATA:1,2017-10-05T11:00:00Z,30.3085,-88.1395,2.4,10.0,11111222 
DISL,ioos:station:DISL:CATA:1,2017-10-05T11:30:00Z,30.3085,-88.1395,2.416,9.88,1111122 
DISL,ioos:station:DISL:CATA:1,2017-10-05T12:00:00Z,30.3085,-88.1395,2.5,9.6,11111222 
DISL,ioos:station:DISL:CATA:1,2017-10-05T12:30:00Z,30.3085,-88.1395,2.463,9.46,1111122 
DISL,ioos:station:DISL:CATA:1,2017-10-05T13:00:00Z,30.3085,-88.1395,2.5,9.3,11111222 
DISL,ioos:station:DISL:CATA:1,2017-10-05T13:30:00Z,30.3085,-88.1395,2.484,9.54,1111122 
DISL,ioos:station:DISL:CATA:1,2017-10-05T14:00:00Z,30.3085,-88.1395,2.5,9.9,11111222 
DISL,ioos:station:DISL:CATA:1,2017-10-05T14:30:00Z,30.3085,-88.1395,2.505,9.96,1111122 
DISL,ioos:station:DISL:CATA:1,2017-10-05T15:00:00Z,30.3085,-88.1395,2.5,9.8,11111222 
DISL,ioos:station:DISL:CATA:1,2017-10-05T15:30:00Z,30.3085,-88.1395,2.555,9.8,1111122 
DISL,ioos:station:DISL:CATA:1,2017-10-05T16:00:00Z,30.3085,-88.1395,2.5,10.0,11111222 
DISL,ioos:station:DISL:CATA:1,2017-10-05T16:30:00Z,30.3085,-88.1395,2.508,9.87,1111122 
DISL,ioos:station:DISL:CATA:1,2017-10-05T17:00:00Z,30.3085,-88.1395,2.5,9.6,11111222 
DISL,ioos:station:DISL:CATA:1,2017-10-05T17:30:00Z,30.3085,-88.1395,2.539,9.72,1111122 
DISL,ioos:station:DISL:CATA:1,2017-10-05T18:00:00Z,30.3085,-88.1395,2.6,9.8,11111222 
DISL,ioos:station:DISL:CATA:1,2017-10-05T18:30:00Z,30.3085,-88.1395,2.551,10.18,1111122 
DISL,ioos:station:DISL:CATA:1,2017-10-05T19:00:00Z,30.3085,-88.1395,2.6,10.4,11111222 
DISL,ioos:station:DISL:CATA:1,2017-10-05T19:30:00Z,30.3085,-88.1395,2.534,10.51,1111122 
DISL,ioos:station:DISL:CATA:1,2017-10-05T20:00:00Z,30.3085,-88.1395,2.5,10.5,11111222 
DISL,ioos:station:DISL:CATA:1,2017-10-05T20:30:00Z,30.3085,-88.1395,2.53,10.66,1111122 
DISL,ioos:station:DISL:CATA:1,2017-10-05T21:00:00Z,30.3085,-88.1395,2.5,10.7,11111222 
DISL,ioos:station:DISL:CATA:1,2017-10-05T21:30:00Z,30.3085,-88.1395,2.475,10.94,1111122 
DISL,ioos:station:DISL:CATA:1,2017-10-05T22:00:00Z,30.3085,-88.1395,2.5,10.6,11111222 
DISL,ioos:station:DISL:CATA:1,2017-10-05T22:30:00Z,30.3085,-88.1395,2.432,9.89,1111122 
DISL,ioos:station:DISL:CATA:1,2017-10-05T23:00:00Z,30.3085,-88.1395,2.4,9.1,11111222 
DISL,ioos:station:DISL:CATA:1,2017-10-05T23:30:00Z,30.3085,-88.1395,2.41,8.04,1111122 
DISL,ioos:station:DISL:CATA:1,2017-10-06T00:00:00Z,30.3085,-88.1395,2.4,7.9,11111222 
DISL,ioos:station:DISL:CATA:1,2017-10-06T00:30:00Z,30.3085,-88.1395,2.442,7.92,1111122 
DISL,ioos:station:DISL:CATA:1,2017-10-06T01:00:00Z,30.3085,-88.1395,2.5,8.2,11111222 
DISL,ioos:station:DISL:CATA:1,2017-10-06T01:30:00Z,30.3085,-88.1395,2.457,8.34,1111122 
DISL,ioos:station:DISL:CATA:1,2017-10-06T02:00:00Z,30.3085,-88.1395,2.5,8.6,11111222 
DISL,ioos:station:DISL:CATA:1,2017-10-06T02:30:00Z,30.3085,-88.1395,2.465,8.42,1111122 
DISL,ioos:station:DISL:CATA:1,2017-10-06T03:00:00Z,30.3085,-88.1395,2.5,8.4,11111222 
DISL,ioos:station:DISL:CATA:1,2017-10-06T03:30:00Z,30.3085,-88.1395,2.449,8.56,1111122 
DISL,ioos:station:DISL:CATA:1,2017-10-06T04:00:00Z,30.3085,-88.1395,2.4,8.8,11111222 
DISL,ioos:station:DISL:CATA:1,2017-10-06T04:30:00Z,30.3085,-88.1395,2.425,8.56,1111122 
DISL,ioos:station:DISL:CATA:1,2017-10-06T05:00:00Z,30.3085,-88.1395,2.4,8.6,11111222 
DISL,ioos:station:DISL:CATA:1,2017-10-06T05:30:00Z,30.3085,-88.1395,2.382,8.76,1111122 
DISL,ioos:station:DISL:CATA:1,2017-10-06T06:30:00Z,30.3085,-88.1395,2.36,8.09,1111122 
DISL,ioos:station:DISL:CATA:1,2017-10-06T07:00:00Z,30.3085,-88.1395,2.4,8.0,11111222 
DISL,ioos:station:DISL:CATA:1,2017-10-06T07:30:00Z,30.3085,-88.1395,2.362,8.32,1111122 
DISL,ioos:station:DISL:CATA:1,2017-10-06T08:00:00Z,30.3085,-88.1395,2.4,8.4,11111222 
DISL,ioos:station:DISL:CATA:1,2017-10-06T08:30:00Z,30.3085,-88.1395,2.35,8.31,1111122 
DISL,ioos:station:DISL:CATA:1,2017-10-06T09:00:00Z,30.3085,-88.1395,2.3,8.2,11111222 
DISL,ioos:station:DISL:CATA:1,2017-10-06T09:30:00Z,30.3085,-88.1395,2.316,8.32,1111122 
DISL,ioos:station:DISL:CATA:1,2017-10-06T10:00:00Z,30.3085,-88.1395,2.3,8.2,11111222 
DISL,ioos:station:DISL:CATA:1,2017-10-06T10:30:00Z,30.3085,-88.1395,2.299,7.88,1111122 
DISL,ioos:station:DISL:CATA:1,2017-10-06T11:00:00Z,30.3085,-88.1395,2.3,8.0,11111222 
DISL,ioos:station:DISL:CATA:1,2017-10-06T11:30:00Z,30.3085,-88.1395,2.285,7.25,1111122 
DISL,ioos:station:DISL:CATA:1,2017-10-06T12:00:00Z,30.3085,-88.1395,2.3,7.9,11111222 
DISL,ioos:station:DISL:CATA:1,2017-10-06T12:30:00Z,30.3085,-88.1395,2.316,7.6,1111122 
DISL,ioos:station:DISL:CATA:1,2017-10-06T13:00:00Z,30.3085,-88.1395,2.3,7.8,11111222 
DISL,ioos:station:DISL:CATA:1,2017-10-06T13:30:00Z,30.3085,-88.1395,2.364,7.93,1111122 
DISL,ioos:station:DISL:CATA:1,2017-10-06T14:00:00Z,30.3085,-88.1395,2.4,8.1,11111222 
DISL,ioos:station:DISL:CATA:1,2017-10-06T14:30:00Z,30.3085,-88.1395,2.417,8.45,1111122 
DISL,ioos:station:DISL:CATA:1,2017-10-06T15:00:00Z,30.3085,-88.1395,2.4,8.9,11111222 
DISL,ioos:station:DISL:CATA:1,2017-10-06T15:30:00Z,30.3085,-88.1395,2.438,9.01,1111122 
DISL,ioos:station:DISL:CATA:1,2017-10-06T16:00:00Z,30.3085,-88.1395,2.5,8.7,11111222 
DISL,ioos:station:DISL:CATA:1,2017-10-06T16:30:00Z,30.3085,-88.1395,2.477,9.37,1111122 